ソーホー彗星

P/2000 O3 ( SOHO )

English version
Home page
Updated on March 27, 2011

---------------------------------------------------------------------

・ プロフィール

・ 軌道要素

Epoch 2000 Aug. 4.0 TT = JDT 2451760.5
T 2000 July 30.94952 TT                                 MPC
q   0.0540632            (2000.0)            P               Q
n   0.18564002     Peri.   48.95380     -0.19664721     -0.95890104
a   3.0433715      Node    53.55488     +0.80591228     -0.27689714
e   0.9822358      Incl.   14.73060     +0.55842212     +0.06194166
P   5.31
From 199 observations 2000 July 30-2011 Mar. 10.  Nongravitational
     parameters A1 = +0.00, A2 = -0.0076.

---------------------------------------------------------------------

軌道要素はM.P.E.C. 2011-F14に掲載されたものです。

---------------------------------------------------------------------

Copyright(C) Seiichi Yoshida (comet@aerith.net). All rights reserved.